Torna al catalogo

ARIANE 5 R/B

AttivoHEO
NORAD 43274·ROCKET BODY·🇫🇷 France

Lanciato Apr 5, 2018 da Guiana Space Centre

Loading…

Prossimi Passaggi (prossime 24 ore)

TLE

AggiornatoSource: Space-Track

Epoca: Sep 14, 2026, 12:58 UTC

1 43274U 18033D   26257.54031112  .00001715  00000-0  48202-3 0  9997
2 43274   2.8490  28.2065 7015004  74.7983 347.9457  2.61912480 74983

Traccia ARIANE 5 R/B in tempo reale con AllMySat

Download on the App Store